Location: Home
(42.5358°N, 72.7383°W)
Time: 02:55:44
(UTC-04:00)

Vanguard 1 - Pass Details

Date: 03 June 2022
Orbit: 649 x 3832 km, 34.2° (Epoch: 24 June)

Event Time Altitude Azimuth Distance (km) Brightness Sun altitude
Exits shadow 01:14:12 - 244° (WSW) 3,899 12.8 -24.9°
Reaches altitude 10° 01:14:20 10° 244° (WSW) 3,864 12.8 -24.9°
Maximum altitude 01:24:57 60° 168° (SSE) 2,698 11.9 -24.6°
Drops below altitude 10° 01:44:00 10° 95° (E) 6,561 14.3 -23.9°
Sets 01:49:49 0° 93° (E) 7,827 14.8 -23.7°
